Location: Napier
(39.4830°S, 176.9170°E)
Time: 14:41:31
(UTC+12:00)

Cosmos 1862 - Pass Details

Date: 15 August 2020
Orbit: 537 x 557 km, 82.5° (Epoch: 23 September)

Event Time Altitude Azimuth Distance (km) Brightness Sun altitude
Rises 18:11:18 0° 178° (S) 2,749 6.7 -7.7°
Reaches altitude 10° 18:13:39 10° 168° (SSE) 1,850 5.8 -8.2°
Maximum altitude 18:17:21 33° 103° (ESE) 957 4.0 -8.9°
Drops below altitude 10° 18:21:01 10° 38° (NE) 1,836 5.7 -9.6°
Sets 18:23:20 0° 28° (NNE) 2,724 6.7 -10.0°
